Home   Weather   Homberg (Efze)   Past weeks

Flag for Germany Past Weather in Homberg (Efze), Hesse, Germany — Yesterday and Last 2 Weeks

Now
64 °F

Overcast.


Feels Like: 64 °F
Forecast: 60 / 77 °F
Wind: 1 mph from Northwest

Location: Fritzlar

Current Time: Aug 16, 2017 at 11:52:53 pm

Latest Report: Aug 16, 2017 at 10:00 pm


Visibility: 16 mi

Pressure: 30.14 "Hg

Humidity: 89%

Dew Point: 61 °F

Location of Homberg (Efze)Location

Past Weather in Homberg (Efze) — Graph

°F

Homberg (Efze) Temperature Yesterday

Maximum temperature yesterday: 78 °F (at 1:00 pm)
Minimum temperature yesterday: 57 °F (at 6:00 am)
Average temperature yesterday: 67 °F

High & Low Weather Summary for the Past Weeks

 TemperatureHumidityPressure
High78 °F (Aug 3, 4:00 pm)99% (Aug 14, 7:00 am)30.24 "Hg (Aug 14, 7:00 am)
Low47 °F (Aug 7, 6:00 am)36% (Aug 7, 3:00 pm)29.81 "Hg (Aug 8, 12:00 pm)
Average64 °F75%30.03 "Hg
* Reported Aug 1 10:00 pm — Aug 16 10:00 pm, Homberg (Efze). Weather by CustomWeather, © 2017

Note: Actual official high and low records may vary slightly from our data, if they occured in-between our weather recording intervals... More about our weather records

Advertising

Homberg (Efze) Weather History for the Previous 24 Hours

Scroll right to see more
 ConditionsComfort  
Time TempWeatherWind HumidityBarometerVisibility
10:00 pm
Wed, Aug 16
64 °FOvercast.1 mph89%30.14 "Hg16 mi
9:00 pm69 °FOvercast.N/A74%30.13 "Hg16 mi
7:00 pm73 °FOvercast.1 mph58%30.12 "Hg16 mi
6:00 pm75 °FOvercast.N/A48%30.12 "Hg16 mi
4:00 pm76 °FPartly sunny.N/A43%30.13 "Hg16 mi
3:00 pm74 °FPartly sunny.3 mph53%30.14 "Hg12 mi
1:00 pm73 °FPartly sunny.2 mph58%30.16 "Hg9 mi
12:00 pm71 °FPartly sunny.2 mph63%30.17 "Hg9 mi
10:00 am66 °FPartly sunny.2 mph81%30.17 "Hg7 mi
9:00 am67 °FFog.1 mph85%30.16 "Hg6 mi
7:00 am61 °FFog.1 mph97%30.13 "Hg6 mi
6:00 am62 °FFog.N/A95%30.11 "Hg9 mi
4:00 am63 °FRain. Low clouds.2 mph95%30.07 "Hg4 mi
3:00 am63 °FLight rain. Overcast.1 mph94%30.07 "Hg7 mi
1:00 am62 °FPassing clouds.No wind94%30.07 "Hg12 mi
12:00 am64 °FPassing clouds.2 mph90%30.06 "Hg12 mi
Weather by CustomWeather, © 2017

See weather overviewHow to use our weather pages